Time,TemperatureF,DewpointF,PressureIn,WindDirection,WindDirectionDegrees,WindSpeedMPH,WindSpeedGustMPH,Humidity,HourlyPrecipIn,Conditions,Clouds,dailyrainin,SoftwareType,DateUTC
2013-02-07 00:03:00,47.0,40.1,29.74,SSE,158,1.3,5.4,77,0.00,,,0.00,WUHU216HW,2013-02-07 08:03:00,
2013-02-07 00:09:00,47.0,40.1,29.74,SE,135,0.4,5.4,77,0.00,,,0.00,WUHU216HW,2013-02-07 08:09:00,
2013-02-07 00:14:00,46.8,40.0,29.74,SE,135,4.0,4.5,77,0.00,,,0.00,WUHU216HW,2013-02-07 08:14:00,
2013-02-07 00:19:00,47.0,40.1,29.74,ESE,113,5.1,7.2,77,0.00,,,0.00,WUHU216HW,2013-02-07 08:19:00,
2013-02-07 00:24:00,47.2,40.0,29.74,SE,135,2.5,7.2,76,0.00,,,0.00,WUHU216HW,2013-02-07 08:24:00,
2013-02-07 00:29:00,47.2,40.0,29.74,SSE,158,1.6,5.1,76,0.00,,,0.00,WUHU216HW,2013-02-07 08:29:00,
2013-02-07 00:34:00,47.2,40.0,29.74,East,90,1.8,5.1,76,0.00,,,0.00,WUHU216HW,2013-02-07 08:34:00,
2013-02-07 00:39:00,47.2,40.0,29.75,WSW,248,3.4,10.1,76,0.00,,,0.00,WUHU216HW,2013-02-07 08:39:00,
2013-02-07 00:44:00,47.2,40.3,29.75,WSW,248,1.3,10.1,77,0.01,,,0.01,WUHU216HW,2013-02-07 08:44:00,
2013-02-07 00:49:00,47.0,40.1,29.75,South,180,3.4,5.4,77,0.01,,,0.01,WUHU216HW,2013-02-07 08:49:00,
2013-02-07 00:54:00,46.8,40.3,29.75,WSW,248,1.3,5.4,78,0.01,,,0.01,WUHU216HW,2013-02-07 08:54:00,
2013-02-07 00:59:00,46.6,39.8,29.74,ENE,68,0.7,1.8,77,0.01,,,0.01,WUHU216HW,2013-02-07 08:59:00,
2013-02-07 01:04:00,46.4,40.0,29.74,SSE,158,1.1,2.7,78,0.01,,,0.01,WUHU216HW,2013-02-07 09:04:00,
2013-02-07 01:09:00,46.3,39.8,29.74,SSE,158,1.8,2.7,78,0.02,,,0.02,WUHU216HW,2013-02-07 09:09:00,
2013-02-07 01:14:00,46.1,40.0,29.75,WSW,248,2.5,3.4,79,0.02,,,0.02,WUHU216HW,2013-02-07 09:14:00,
2013-02-07 01:19:00,46.1,40.0,29.75,West,270,4.0,4.7,79,0.02,,,0.02,WUHU216HW,2013-02-07 09:19:00,
2013-02-07 01:25:00,45.9,40.1,29.76,West,270,0.2,4.7,80,0.02,,,0.02,WUHU216HW,2013-02-07 09:25:00,
2013-02-07 01:30:00,45.7,40.2,29.78,SE,135,2.2,2.9,81,0.03,,,0.03,WUHU216HW,2013-02-07 09:30:00,
2013-02-07 01:35:00,45.5,40.1,29.78,SSE,158,1.6,4.9,81,0.05,,,0.05,WUHU216HW,2013-02-07 09:35:00,
2013-02-07 01:40:00,45.2,40.1,29.78,East,90,1.1,4.9,82,0.04,,,0.05,WUHU216HW,2013-02-07 09:40:00,
2013-02-07 01:45:00,45.0,39.9,29.79,SSW,203,5.4,6.7,82,0.06,,,0.07,WUHU216HW,2013-02-07 09:45:00,
2013-02-07 01:50:00,44.6,39.8,29.80,SE,135,2.2,9.4,83,0.07,,,0.08,WUHU216HW,2013-02-07 09:50:00,
2013-02-07 01:55:00,44.3,39.4,29.80,SSE,158,3.4,9.4,83,0.08,,,0.09,WUHU216HW,2013-02-07 09:55:00,
2013-02-07 02:00:00,44.1,39.6,29.80,SE,135,4.0,8.9,84,0.10,,,0.11,WUHU216HW,2013-02-07 10:00:00,
2013-02-07 02:05:00,43.9,39.4,29.80,South,180,1.6,8.9,84,0.10,,,0.11,WUHU216HW,2013-02-07 10:05:00,
2013-02-07 02:10:00,43.7,39.3,29.80,South,180,2.2,6.3,84,0.10,,,0.12,WUHU216HW,2013-02-07 10:10:00,
2013-02-07 02:15:00,43.6,39.3,29.81,SE,135,0.2,6.3,85,0.10,,,0.12,WUHU216HW,2013-02-07 10:15:00,
2013-02-07 02:20:00,43.6,39.3,29.81,SE,135,0.0,3.8,85,0.10,,,0.12,WUHU216HW,2013-02-07 10:20:00,
2013-02-07 02:26:00,43.6,39.3,29.81,ESE,113,2.7,4.9,85,0.10,,,0.12,WUHU216HW,2013-02-07 10:26:00,
2013-02-07 02:31:00,43.6,39.3,29.81,South,180,1.1,4.9,85,0.08,,,0.12,WUHU216HW,2013-02-07 10:31:00,
2013-02-07 02:35:00,43.6,39.3,29.81,SE,135,2.2,3.8,85,0.07,,,0.12,WUHU216HW,2013-02-07 10:35:00,
2013-02-07 02:40:00,43.4,39.2,29.81,SE,135,3.4,4.0,85,0.06,,,0.12,WUHU216HW,2013-02-07 10:40:00,
2013-02-07 02:46:00,43.4,39.4,29.81,SSE,158,1.8,4.0,86,0.05,,,0.12,WUHU216HW,2013-02-07 10:46:00,
2013-02-07 02:51:00,43.2,39.2,29.82,SSE,158,4.3,6.0,86,0.04,,,0.12,WUHU216HW,2013-02-07 10:51:00,
2013-02-07 02:56:00,43.2,39.2,29.82,SE,135,1.6,6.0,86,0.01,,,0.12,WUHU216HW,2013-02-07 10:56:00,
2013-02-07 03:01:00,43.0,38.8,29.82,SSE,158,5.6,6.7,85,0.01,,,0.12,WUHU216HW,2013-02-07 11:01:00,
2013-02-07 03:06:00,43.0,38.8,29.82,SSW,203,0.7,6.7,85,0.00,,,0.12,WUHU216HW,2013-02-07 11:06:00,
2013-02-07 03:11:00,43.0,38.8,29.82,SSE,158,2.5,5.1,85,0.00,,,0.12,WUHU216HW,2013-02-07 11:11:00,
2013-02-07 03:16:00,42.8,38.6,29.83,SSE,158,0.4,5.1,85,0.00,,,0.12,WUHU216HW,2013-02-07 11:16:00,
2013-02-07 03:21:00,42.8,38.6,29.83,SSE,158,2.7,4.0,85,0.00,,,0.12,WUHU216HW,2013-02-07 11:21:00,
2013-02-07 03:26:00,42.8,38.9,29.82,South,180,3.6,4.7,86,0.00,,,0.12,WUHU216HW,2013-02-07 11:26:00,
2013-02-07 03:31:00,42.8,38.9,29.82,SSE,158,2.2,6.9,86,0.00,,,0.12,WUHU216HW,2013-02-07 11:31:00,
2013-02-07 03:36:00,42.8,38.9,29.83,SSE,158,3.4,6.9,86,0.00,,,0.12,WUHU216HW,2013-02-07 11:36:00,
2013-02-07 03:41:00,42.8,38.6,29.83,SE,135,2.7,8.5,85,0.00,,,0.12,WUHU216HW,2013-02-07 11:41:00,
2013-02-07 03:46:00,42.8,38.6,29.83,SSE,158,1.3,8.5,85,0.00,,,0.12,WUHU216HW,2013-02-07 11:46:00,
2013-02-07 03:51:00,42.8,38.6,29.83,WSW,248,0.7,3.6,85,0.00,,,0.12,WUHU216HW,2013-02-07 11:51:00,
2013-02-07 03:56:00,42.8,38.6,29.83,SSW,203,1.6,6.3,85,0.00,,,0.12,WUHU216HW,2013-02-07 11:56:00,
2013-02-07 04:02:00,42.7,38.4,29.84,SE,135,8.1,8.1,85,0.00,,,0.12,WUHU216HW,2013-02-07 12:02:00,
2013-02-07 04:07:00,42.7,38.4,29.84,SSW,203,1.3,8.1,85,0.00,,,0.12,WUHU216HW,2013-02-07 12:07:00,
2013-02-07 04:12:00,42.7,38.4,29.84,ESE,113,2.5,8.1,85,0.00,,,0.12,WUHU216HW,2013-02-07 12:12:00,
2013-02-07 04:17:00,42.7,38.4,29.84,SE,135,1.1,4.3,85,0.00,,,0.12,WUHU216HW,2013-02-07 12:17:00,
2013-02-07 04:22:00,42.5,38.3,29.84,South,180,9.2,9.2,85,0.00,,,0.12,WUHU216HW,2013-02-07 12:22:00,
2013-02-07 04:27:00,42.5,38.3,29.84,South,180,3.8,9.2,85,0.00,,,0.12,WUHU216HW,2013-02-07 12:27:00,
2013-02-07 04:32:00,42.5,38.3,29.85,SE,135,2.5,9.2,85,0.00,,,0.12,WUHU216HW,2013-02-07 12:32:00,
2013-02-07 04:37:00,42.5,38.3,29.85,SSE,158,3.8,6.9,85,0.00,,,0.12,WUHU216HW,2013-02-07 12:37:00,
2013-02-07 04:42:00,42.5,38.3,29.85,South,180,2.5,5.4,85,0.00,,,0.12,WUHU216HW,2013-02-07 12:42:00,
2013-02-07 04:47:00,42.5,38.3,29.85,SSE,158,2.5,6.7,85,0.00,,,0.12,WUHU216HW,2013-02-07 12:47:00,
2013-02-07 04:52:00,42.5,38.0,29.85,SSE,158,3.6,6.7,84,0.00,,,0.12,WUHU216HW,2013-02-07 12:52:00,
2013-02-07 04:57:00,42.5,38.0,29.85,SSE,158,5.1,6.3,84,0.00,,,0.12,WUHU216HW,2013-02-07 12:57:00,
2013-02-07 05:02:00,42.5,38.0,29.85,SSW,203,5.1,8.5,84,0.00,,,0.12,WUHU216HW,2013-02-07 13:02:00,
2013-02-07 05:07:00,42.5,38.0,29.85,SSE,158,2.0,8.5,84,0.00,,,0.12,WUHU216HW,2013-02-07 13:07:00,
2013-02-07 05:12:00,42.5,38.0,29.86,WSW,248,0.2,7.4,84,0.00,,,0.12,WUHU216HW,2013-02-07 13:12:00,
2013-02-07 05:17:00,42.5,37.6,29.86,SSW,203,3.1,5.8,83,0.00,,,0.12,WUHU216HW,2013-02-07 13:17:00,
2013-02-07 05:22:00,42.5,37.6,29.86,SE,135,0.9,5.8,83,0.00,,,0.12,WUHU216HW,2013-02-07 13:22:00,
2013-02-07 05:27:00,42.5,37.6,29.87,ESE,113,1.1,5.1,83,0.00,,,0.12,WUHU216HW,2013-02-07 13:27:00,
2013-02-07 05:32:00,42.5,37.6,29.87,South,180,3.4,3.6,83,0.00,,,0.12,WUHU216HW,2013-02-07 13:32:00,
2013-02-07 05:37:00,42.5,37.6,29.87,WSW,248,1.1,4.7,83,0.00,,,0.12,WUHU216HW,2013-02-07 13:37:00,
2013-02-07 05:42:00,42.5,37.6,29.87,SE,135,4.7,4.7,83,0.00,,,0.12,WUHU216HW,2013-02-07 13:42:00,
2013-02-07 05:47:00,42.5,37.6,29.88,South,180,2.0,4.7,83,0.00,,,0.12,WUHU216HW,2013-02-07 13:47:00,
2013-02-07 05:52:00,42.5,37.6,29.88,SE,135,0.2,4.0,83,0.00,,,0.12,WUHU216HW,2013-02-07 13:52:00,
2013-02-07 05:57:00,42.5,37.6,29.89,SSE,158,1.6,3.6,83,0.00,,,0.12,WUHU216HW,2013-02-07 13:57:00,
2013-02-07 06:02:00,42.5,37.6,29.89,SSW,203,0.2,2.0,83,0.00,,,0.12,WUHU216HW,2013-02-07 14:02:00,
2013-02-07 06:07:00,42.5,37.6,29.89,SSW,203,0.0,1.6,83,0.00,,,0.12,WUHU216HW,2013-02-07 14:07:00,
2013-02-07 06:13:00,42.5,37.6,29.90,SSW,203,2.5,2.5,83,0.00,,,0.12,WUHU216HW,2013-02-07 14:13:00,
2013-02-07 06:18:00,42.5,38.0,29.89,South,180,0.7,2.5,84,0.00,,,0.12,WUHU216HW,2013-02-07 14:18:00,
2013-02-07 06:23:00,42.5,37.6,29.89,ESE,113,0.4,2.5,83,0.00,,,0.12,WUHU216HW,2013-02-07 14:23:00,
2013-02-07 06:28:00,42.5,37.6,29.89,South,180,3.4,4.7,83,0.00,,,0.12,WUHU216HW,2013-02-07 14:28:00,
2013-02-07 06:33:00,42.5,37.6,29.90,South,180,5.1,5.1,83,0.00,,,0.12,WUHU216HW,2013-02-07 14:33:00,
2013-02-07 06:37:00,42.5,37.6,29.90,SSE,158,1.8,5.1,83,0.00,,,0.12,WUHU216HW,2013-02-07 14:37:00,
2013-02-07 06:43:00,42.5,37.6,29.90,SSE,158,1.1,5.1,83,0.00,,,0.12,WUHU216HW,2013-02-07 14:43:00,
2013-02-07 06:48:00,42.5,37.6,29.90,South,180,2.2,5.4,83,0.00,,,0.12,WUHU216HW,2013-02-07 14:48:00,
2013-02-07 06:53:00,42.3,37.4,29.90,SE,135,1.8,5.4,83,0.00,,,0.12,WUHU216HW,2013-02-07 14:53:00,
2013-02-07 06:58:00,42.3,37.4,29.91,ESE,113,0.4,4.0,83,0.00,,,0.12,WUHU216HW,2013-02-07 14:58:00,
2013-02-07 07:03:00,42.3,37.4,29.91,East,90,0.7,2.5,83,0.00,,,0.12,WUHU216HW,2013-02-07 15:03:00,
2013-02-07 07:08:00,42.3,37.4,29.91,SE,135,1.1,3.8,83,0.00,,,0.12,WUHU216HW,2013-02-07 15:08:00,
2013-02-07 07:13:00,42.3,37.4,29.91,SSE,158,3.1,4.0,83,0.00,,,0.12,WUHU216HW,2013-02-07 15:13:00,
2013-02-07 07:18:00,42.1,37.3,29.91,South,180,5.4,5.4,83,0.00,,,0.12,WUHU216HW,2013-02-07 15:18:00,
2013-02-07 07:23:00,42.1,37.3,29.90,South,180,1.1,5.4,83,0.00,,,0.12,WUHU216HW,2013-02-07 15:23:00,
2013-02-07 07:28:00,41.8,36.9,29.91,South,180,1.1,3.6,83,0.00,,,0.12,WUHU216HW,2013-02-07 15:28:00,
2013-02-07 07:33:00,41.8,36.9,29.91,SSW,203,0.2,4.7,83,0.00,,,0.12,WUHU216HW,2013-02-07 15:33:00,
2013-02-07 07:38:00,41.6,36.5,29.92,South,180,0.0,4.7,82,0.00,,,0.12,WUHU216HW,2013-02-07 15:38:00,
2013-02-07 07:43:00,41.6,36.5,29.92,SSW,203,0.7,2.5,82,0.00,,,0.12,WUHU216HW,2013-02-07 15:43:00,
2013-02-07 07:48:00,41.6,36.5,29.92,SSW,203,0.7,1.1,82,0.00,,,0.12,WUHU216HW,2013-02-07 15:48:00,
2013-02-07 07:59:00,41.8,36.9,29.93,SE,135,1.8,1.8,83,0.00,,,0.12,WUHU216HW,2013-02-07 15:59:00,
2013-02-07 08:04:00,41.6,36.7,29.93,SSE,158,1.1,5.8,83,0.00,,,0.12,WUHU216HW,2013-02-07 16:04:00,
2013-02-07 08:09:00,41.6,36.7,29.93,SSE,158,1.1,5.8,83,0.00,,,0.12,WUHU216HW,2013-02-07 16:09:00,
2013-02-07 08:14:00,41.4,36.5,29.93,SE,135,2.0,4.3,83,0.00,,,0.12,WUHU216HW,2013-02-07 16:14:00,
2013-02-07 08:19:00,41.4,36.5,29.93,SSW,203,1.8,4.5,83,0.00,,,0.12,WUHU216HW,2013-02-07 16:19:00,
2013-02-07 08:25:00,41.4,36.5,29.94,South,180,2.2,4.5,83,0.00,,,0.12,WUHU216HW,2013-02-07 16:25:00,
2013-02-07 08:30:00,41.4,36.5,29.94,SSE,158,1.1,3.6,83,0.00,,,0.12,WUHU216HW,2013-02-07 16:30:00,
2013-02-07 08:35:00,41.4,36.5,29.94,SSE,158,2.2,4.0,83,0.00,,,0.12,WUHU216HW,2013-02-07 16:35:00,
2013-02-07 08:40:00,41.4,36.5,29.94,South,180,4.3,4.3,83,0.00,,,0.12,WUHU216HW,2013-02-07 16:40:00,
2013-02-07 08:45:00,41.4,36.5,29.94,SSE,158,2.5,4.3,83,0.00,,,0.12,WUHU216HW,2013-02-07 16:45:00,
2013-02-07 08:50:00,41.4,36.5,29.95,SSE,158,2.0,3.8,83,0.00,,,0.12,WUHU216HW,2013-02-07 16:50:00,
2013-02-07 08:55:00,41.9,37.5,29.95,SSE,158,2.5,3.8,84,0.00,,,0.12,WUHU216HW,2013-02-07 16:55:00,
2013-02-07 09:00:00,42.1,37.6,29.95,SE,135,3.6,3.8,84,0.00,,,0.12,WUHU216HW,2013-02-07 17:00:00,
2013-02-07 09:05:00,42.7,38.2,29.95,SSW,203,2.5,4.7,84,0.00,,,0.12,WUHU216HW,2013-02-07 17:05:00,
2013-02-07 09:10:00,43.0,38.2,29.95,SE,135,2.7,5.4,83,0.00,,,0.12,WUHU216HW,2013-02-07 17:10:00,
2013-02-07 09:15:00,43.2,38.3,29.95,ESE,113,2.5,5.4,83,0.00,,,0.12,WUHU216HW,2013-02-07 17:15:00,
2013-02-07 09:20:00,43.2,38.3,29.96,SSE,158,1.8,5.4,83,0.00,,,0.12,WUHU216HW,2013-02-07 17:20:00,
2013-02-07 09:25:00,43.4,38.5,29.96,ESE,113,2.5,4.3,83,0.00,,,0.12,WUHU216HW,2013-02-07 17:25:00,
2013-02-07 09:30:00,43.9,39.1,29.96,SE,135,3.4,6.9,83,0.00,,,0.12,WUHU216HW,2013-02-07 17:30:00,
2013-02-07 09:35:00,44.5,39.3,29.96,SE,135,3.4,6.9,82,0.00,,,0.12,WUHU216HW,2013-02-07 17:35:00,
2013-02-07 09:41:00,44.5,39.0,29.96,South,180,4.5,6.9,81,0.00,,,0.12,WUHU216HW,2013-02-07 17:41:00,
2013-02-07 09:46:00,44.3,38.8,29.96,SE,135,0.7,6.9,81,0.00,,,0.12,WUHU216HW,2013-02-07 17:46:00,
2013-02-07 09:51:00,44.8,39.3,29.96,SE,135,4.0,5.6,81,0.00,,,0.12,WUHU216HW,2013-02-07 17:51:00,
2013-02-07 09:56:00,45.5,40.1,29.96,SSE,158,5.8,5.8,81,0.00,,,0.12,WUHU216HW,2013-02-07 17:56:00,
2013-02-07 10:01:00,45.7,40.0,29.96,SE,135,6.5,7.8,80,0.00,,,0.12,WUHU216HW,2013-02-07 18:01:00,
2013-02-07 10:06:00,46.1,40.3,29.96,ESE,113,4.0,7.8,80,0.00,,,0.12,WUHU216HW,2013-02-07 18:06:00,
2013-02-07 10:11:00,46.3,40.1,29.97,North,0,0.0,6.5,79,0.00,,,0.12,WUHU216HW,2013-02-07 18:11:00,
2013-02-07 10:16:00,46.8,40.7,29.97,South,180,5.6,6.5,79,0.00,,,0.12,WUHU216HW,2013-02-07 18:16:00,
2013-02-07 10:21:00,47.0,40.9,29.97,South,180,2.5,5.8,79,0.00,,,0.12,WUHU216HW,2013-02-07 18:21:00,
2013-02-07 10:26:00,47.2,41.3,29.97,SSE,158,6.9,6.9,80,0.00,,,0.12,WUHU216HW,2013-02-07 18:26:00,
2013-02-07 10:31:00,47.7,41.5,29.97,SSE,158,5.4,6.9,79,0.00,,,0.12,WUHU216HW,2013-02-07 18:31:00,
2013-02-07 10:36:00,47.9,41.3,29.98,SE,135,4.0,7.4,78,0.00,,,0.12,WUHU216HW,2013-02-07 18:36:00,
2013-02-07 10:41:00,47.9,41.3,29.98,SSE,158,3.6,7.4,78,0.00,,,0.12,WUHU216HW,2013-02-07 18:41:00,
2013-02-07 10:46:00,47.9,41.0,29.98,SSE,158,3.4,7.2,77,0.00,,,0.12,WUHU216HW,2013-02-07 18:46:00,
2013-02-07 10:51:00,48.1,41.1,29.98,SSE,158,1.1,7.2,77,0.00,,,0.12,WUHU216HW,2013-02-07 18:51:00,
2013-02-07 10:56:00,48.2,41.3,29.98,South,180,3.6,4.7,77,0.00,,,0.12,WUHU216HW,2013-02-07 18:56:00,
2013-02-07 11:01:00,48.8,41.9,29.98,South,180,1.6,4.9,77,0.00,,,0.12,WUHU216HW,2013-02-07 19:01:00,
2013-02-07 11:06:00,49.1,42.2,29.98,SE,135,2.2,4.9,77,0.00,,,0.12,WUHU216HW,2013-02-07 19:06:00,
2013-02-07 11:11:00,49.3,41.7,29.98,SE,135,3.4,6.0,75,0.00,,,0.12,WUHU216HW,2013-02-07 19:11:00,
2013-02-07 11:17:00,48.8,41.1,29.98,South,180,0.4,6.0,75,0.00,,,0.12,WUHU216HW,2013-02-07 19:17:00,
2013-02-07 11:22:00,48.4,40.8,29.98,WSW,248,1.8,6.3,75,0.00,,,0.12,WUHU216HW,2013-02-07 19:22:00,
2013-02-07 11:27:00,48.2,40.6,29.98,SSE,158,2.7,6.3,75,0.00,,,0.12,WUHU216HW,2013-02-07 19:27:00,
2013-02-07 11:32:00,48.4,40.8,29.98,WSW,248,2.0,6.3,75,0.00,,,0.12,WUHU216HW,2013-02-07 19:32:00,
2013-02-07 11:37:00,48.2,40.6,29.98,South,180,6.5,6.5,75,0.00,,,0.12,WUHU216HW,2013-02-07 19:37:00,
2013-02-07 11:42:00,47.9,40.0,29.97,South,180,3.4,6.9,74,0.00,,,0.12,WUHU216HW,2013-02-07 19:42:00,
2013-02-07 11:47:00,47.7,39.4,29.97,SSE,158,3.4,6.9,73,0.00,,,0.12,WUHU216HW,2013-02-07 19:47:00,
2013-02-07 11:52:00,47.9,40.0,29.97,SSE,158,2.5,5.1,74,0.00,,,0.12,WUHU216HW,2013-02-07 19:52:00,
2013-02-07 11:57:00,48.4,40.1,29.97,SE,135,2.5,5.1,73,0.00,,,0.12,WUHU216HW,2013-02-07 19:57:00,
2013-02-07 12:02:00,48.6,40.2,29.98,SSE,158,1.1,5.4,73,0.00,,,0.12,WUHU216HW,2013-02-07 20:02:00,
2013-02-07 12:07:00,49.0,40.6,29.98,SSE,158,3.4,6.3,73,0.00,,,0.12,WUHU216HW,2013-02-07 20:07:00,
2013-02-07 12:12:00,49.1,40.5,29.98,SSE,158,2.7,6.3,72,0.00,,,0.12,WUHU216HW,2013-02-07 20:12:00,
2013-02-07 12:17:00,49.3,40.7,29.98,SSE,158,2.9,6.0,72,0.00,,,0.12,WUHU216HW,2013-02-07 20:17:00,
2013-02-07 12:22:00,49.7,40.7,29.98,SE,135,2.9,5.4,71,0.00,,,0.12,WUHU216HW,2013-02-07 20:22:00,
2013-02-07 12:27:00,50.2,41.2,29.98,North,0,1.8,5.1,71,0.00,,,0.12,WUHU216HW,2013-02-07 20:27:00,
2013-02-07 12:33:00,50.8,41.8,29.98,SSW,203,1.8,2.9,71,0.00,,,0.12,WUHU216HW,2013-02-07 20:33:00,
2013-02-07 12:38:00,51.3,41.9,29.97,SSE,158,3.4,5.6,70,0.00,,,0.12,WUHU216HW,2013-02-07 20:38:00,
2013-02-07 12:43:00,51.5,41.7,29.97,SE,135,2.7,5.6,69,0.00,,,0.12,WUHU216HW,2013-02-07 20:43:00,
2013-02-07 12:48:00,51.8,41.7,29.97,SSE,158,4.0,6.0,68,0.00,,,0.12,WUHU216HW,2013-02-07 20:48:00,
2013-02-07 12:53:00,51.8,41.7,29.97,South,180,5.1,6.3,68,0.00,,,0.12,WUHU216HW,2013-02-07 20:53:00,
2013-02-07 12:58:00,51.8,41.2,29.97,SE,135,4.0,9.2,67,0.00,,,0.12,WUHU216HW,2013-02-07 20:58:00,
2013-02-07 13:03:00,51.8,41.7,29.97,SSE,158,7.6,9.2,68,0.00,,,0.12,WUHU216HW,2013-02-07 21:03:00,
2013-02-07 13:08:00,51.8,41.2,29.97,SSE,158,6.9,7.6,67,0.00,,,0.12,WUHU216HW,2013-02-07 21:08:00,
2013-02-07 13:13:00,51.7,40.7,29.97,ESE,113,3.1,6.9,66,0.00,,,0.12,WUHU216HW,2013-02-07 21:13:00,
2013-02-07 13:18:00,51.7,40.7,29.97,SSE,158,2.9,5.1,66,0.00,,,0.12,WUHU216HW,2013-02-07 21:18:00,
2013-02-07 13:23:00,51.7,40.7,29.97,SSE,158,3.1,4.7,66,0.00,,,0.12,WUHU216HW,2013-02-07 21:23:00,
2013-02-07 13:28:00,52.2,41.1,29.98,South,180,4.0,4.0,66,0.00,,,0.12,WUHU216HW,2013-02-07 21:28:00,
2013-02-07 13:33:00,52.2,41.1,29.97,SSE,158,2.9,4.0,66,0.00,,,0.12,WUHU216HW,2013-02-07 21:33:00,
2013-02-07 13:38:00,52.2,40.8,29.97,SE,135,2.0,6.3,65,0.00,,,0.12,WUHU216HW,2013-02-07 21:38:00,
2013-02-07 13:43:00,52.0,40.1,29.97,SE,135,0.9,6.3,64,0.00,,,0.12,WUHU216HW,2013-02-07 21:43:00,
2013-02-07 13:48:00,51.7,40.2,29.97,South,180,0.7,4.9,65,0.00,,,0.12,WUHU216HW,2013-02-07 21:48:00,
2013-02-07 13:54:00,51.5,40.1,29.97,South,180,0.4,2.7,65,0.00,,,0.12,WUHU216HW,2013-02-07 21:54:00,
2013-02-07 13:59:00,51.5,40.1,29.97,South,180,1.1,2.7,65,0.00,,,0.12,WUHU216HW,2013-02-07 21:59:00,
2013-02-07 14:04:00,51.3,39.9,29.97,WNW,293,0.7,2.2,65,0.00,,,0.12,WUHU216HW,2013-02-07 22:04:00,
2013-02-07 14:09:00,51.5,40.1,29.97,NNW,338,0.0,4.7,65,0.00,,,0.12,WUHU216HW,2013-02-07 22:09:00,
2013-02-07 14:14:00,51.3,39.9,29.97,SW,225,0.4,4.7,65,0.00,,,0.12,WUHU216HW,2013-02-07 22:14:00,
2013-02-07 14:19:00,51.3,39.9,29.97,NE,45,0.4,0.7,65,0.00,,,0.12,WUHU216HW,2013-02-07 22:19:00,
2013-02-07 14:24:00,51.1,38.5,29.97,NNW,338,0.0,1.1,62,0.00,,,0.12,WUHU216HW,2013-02-07 22:24:00,
2013-02-07 14:29:00,50.6,38.8,29.97,NW,315,2.5,2.7,64,0.00,,,0.12,WUHU216HW,2013-02-07 22:29:00,
2013-02-07 14:34:00,50.2,38.4,29.97,West,270,0.7,3.8,64,0.00,,,0.12,WUHU216HW,2013-02-07 22:34:00,
2013-02-07 14:39:00,50.4,38.6,29.97,NNW,338,2.2,4.3,64,0.00,,,0.12,WUHU216HW,2013-02-07 22:39:00,
2013-02-07 14:44:00,50.2,38.4,29.97,West,270,0.0,4.3,64,0.00,,,0.12,WUHU216HW,2013-02-07 22:44:00,
2013-02-07 14:49:00,50.0,38.4,29.97,NNW,338,1.8,2.2,64,0.00,,,0.12,WUHU216HW,2013-02-07 22:49:00,
2013-02-07 14:54:00,49.5,37.8,29.98,WSW,248,0.0,2.2,64,0.00,,,0.12,WUHU216HW,2013-02-07 22:54:00,
2013-02-07 15:00:00,49.3,38.0,29.98,WSW,248,0.2,1.1,65,0.00,,,0.12,WUHU216HW,2013-02-07 23:00:00,
2013-02-07 15:05:00,49.3,38.0,29.98,West,270,0.0,1.1,65,0.00,,,0.12,WUHU216HW,2013-02-07 23:05:00,
2013-02-07 15:10:00,49.1,37.8,29.98,West,270,0.0,0.7,65,0.00,,,0.12,WUHU216HW,2013-02-07 23:10:00,
2013-02-07 15:15:00,49.1,37.8,29.98,NW,315,0.0,0.7,65,0.00,,,0.12,WUHU216HW,2013-02-07 23:15:00,
2013-02-07 15:20:00,48.8,37.5,29.97,NW,315,0.0,0.7,65,0.00,,,0.12,WUHU216HW,2013-02-07 23:20:00,
2013-02-07 15:25:00,48.8,37.5,29.98,SW,225,0.0,0.7,65,0.00,,,0.12,WUHU216HW,2013-02-07 23:25:00,
2013-02-07 15:30:00,48.6,37.7,29.97,ENE,68,0.4,0.7,66,0.00,,,0.12,WUHU216HW,2013-02-07 23:30:00,
2013-02-07 15:35:00,48.6,37.7,29.98,WSW,248,0.0,1.3,66,0.00,,,0.12,WUHU216HW,2013-02-07 23:35:00,
2013-02-07 15:40:00,48.6,37.7,29.98,SW,225,0.4,1.3,66,0.00,,,0.12,WUHU216HW,2013-02-07 23:40:00,
2013-02-07 15:45:00,48.6,37.7,29.98,West,270,0.2,1.1,66,0.00,,,0.12,WUHU216HW,2013-02-07 23:45:00,
2013-02-07 15:51:00,48.4,37.5,29.98,WNW,293,0.0,1.1,66,0.00,,,0.12,WUHU216HW,2013-02-07 23:51:00,
2013-02-07 15:56:00,48.4,37.5,29.98,SSW,203,0.0,1.8,66,0.00,,,0.12,WUHU216HW,2013-02-07 23:56:00,
2013-02-07 16:01:00,48.2,37.4,29.98,WNW,293,1.1,1.8,66,0.00,,,0.12,WUHU216HW,2013-02-08 00:01:00,
2013-02-07 16:06:00,48.1,37.2,29.99,WNW,293,0.4,1.8,66,0.00,,,0.12,WUHU216HW,2013-02-08 00:06:00,
2013-02-07 16:11:00,47.9,37.0,29.98,West,270,0.2,1.8,66,0.00,,,0.12,WUHU216HW,2013-02-08 00:11:00,
2013-02-07 16:16:00,47.7,36.9,29.99,NW,315,0.0,1.6,66,0.00,,,0.12,WUHU216HW,2013-02-08 00:16:00,
2013-02-07 16:21:00,47.5,37.1,29.99,North,0,0.2,0.4,67,0.00,,,0.12,WUHU216HW,2013-02-08 00:21:00,
2013-02-07 16:26:00,47.5,37.1,29.99,ESE,113,0.4,0.7,67,0.00,,,0.12,WUHU216HW,2013-02-08 00:26:00,
2013-02-07 16:31:00,47.2,37.2,29.99,WSW,248,0.0,0.9,68,0.00,,,0.12,WUHU216HW,2013-02-08 00:31:00,
2013-02-07 16:36:00,47.2,37.2,29.99,WSW,248,0.0,0.9,68,0.00,,,0.12,WUHU216HW,2013-02-08 00:36:00,
2013-02-07 16:41:00,47.0,37.0,29.99,West,270,0.0,0.9,68,0.00,,,0.12,WUHU216HW,2013-02-08 00:41:00,
2013-02-07 16:46:00,46.8,36.8,29.99,West,270,1.3,1.3,68,0.00,,,0.12,WUHU216HW,2013-02-08 00:46:00,
2013-02-07 16:52:00,46.4,36.5,29.99,West,270,0.2,1.3,68,0.00,,,0.12,WUHU216HW,2013-02-08 00:52:00,
2013-02-07 16:57:00,46.1,36.1,30.00,West,270,0.4,1.1,68,0.00,,,0.12,WUHU216HW,2013-02-08 00:57:00,
2013-02-07 17:02:00,45.7,36.2,30.00,West,270,1.1,1.1,69,0.00,,,0.12,WUHU216HW,2013-02-08 01:02:00,
2013-02-07 17:07:00,45.4,35.8,30.00,West,270,0.7,1.1,69,0.00,,,0.12,WUHU216HW,2013-02-08 01:07:00,
2013-02-07 17:12:00,45.2,35.7,30.01,WSW,248,0.4,1.1,69,0.00,,,0.12,WUHU216HW,2013-02-08 01:12:00,
2013-02-07 17:17:00,44.8,35.6,30.01,WSW,248,1.1,1.3,70,0.00,,,0.12,WUHU216HW,2013-02-08 01:17:00,
2013-02-07 17:22:00,44.5,35.3,30.01,WSW,248,1.1,1.8,70,0.00,,,0.12,WUHU216HW,2013-02-08 01:22:00,
2013-02-07 17:27:00,44.1,35.3,30.01,WSW,248,1.6,1.8,71,0.00,,,0.12,WUHU216HW,2013-02-08 01:27:00,
2013-02-07 17:32:00,43.7,35.0,30.01,WSW,248,1.8,1.8,71,0.00,,,0.12,WUHU216HW,2013-02-08 01:32:00,
2013-02-07 17:37:00,43.4,34.7,30.01,WSW,248,1.1,1.8,71,0.00,,,0.12,WUHU216HW,2013-02-08 01:37:00,
2013-02-07 17:42:00,43.0,34.3,30.02,WNW,293,0.4,2.0,71,0.00,,,0.12,WUHU216HW,2013-02-08 01:42:00,
2013-02-07 17:47:00,42.8,34.5,30.02,West,270,0.0,2.0,72,0.00,,,0.12,WUHU216HW,2013-02-08 01:47:00,
2013-02-07 17:52:00,42.5,34.1,30.02,WNW,293,0.0,0.9,72,0.00,,,0.12,WUHU216HW,2013-02-08 01:52:00,
2013-02-07 17:57:00,42.3,34.3,30.01,West,270,0.2,0.2,73,0.00,,,0.12,WUHU216HW,2013-02-08 01:57:00,
2013-02-07 18:02:00,42.1,34.1,30.01,West,270,0.9,0.9,73,0.00,,,0.12,WUHU216HW,2013-02-08 02:02:00,
2013-02-07 18:08:00,42.1,34.1,30.01,West,270,0.9,0.9,73,0.00,,,0.12,WUHU216HW,2013-02-08 02:08:00,
2013-02-07 18:59:00,39.8,33.1,30.04,West,270,0.4,0.4,77,0.00,,,0.12,WUHU216HW,2013-02-08 02:59:00,
2013-02-07 19:04:00,39.8,33.1,30.04,West,270,0.4,0.4,77,0.00,,,0.12,WUHU216HW,2013-02-08 03:04:00,
2013-02-07 19:59:00,38.0,32.0,30.06,West,270,0.0,0.0,79,0.00,,,0.12,WUHU216HW,2013-02-08 03:59:00,
2013-02-07 20:04:00,38.0,32.0,30.06,West,270,0.0,0.0,79,0.00,,,0.12,WUHU216HW,2013-02-08 04:04:00,
2013-02-07 20:59:00,36.4,31.3,30.07,West,270,0.4,0.4,82,0.00,,,0.12,WUHU216HW,2013-02-08 04:59:00,
2013-02-07 21:00:00,36.4,31.3,30.07,West,270,0.0,0.4,82,0.00,,,0.12,WUHU216HW,2013-02-08 05:00:00,
2013-02-07 21:01:00,36.4,31.3,30.07,West,270,0.0,0.4,82,0.00,,,0.12,WUHU216HW,2013-02-08 05:01:00,
2013-02-07 21:06:00,36.2,31.1,30.07,West,270,0.0,0.4,82,0.00,,,0.12,WUHU216HW,2013-02-08 05:06:00,
2013-02-07 21:11:00,36.0,31.0,30.08,West,270,0.0,0.2,82,0.00,,,0.12,WUHU216HW,2013-02-08 05:11:00,
2013-02-07 21:16:00,36.0,31.0,30.08,West,270,0.4,0.4,82,0.00,,,0.12,WUHU216HW,2013-02-08 05:16:00,
2013-02-07 21:21:00,35.8,30.8,30.08,West,270,0.4,0.4,82,0.00,,,0.12,WUHU216HW,2013-02-08 05:21:00,
2013-02-07 21:26:00,35.6,30.6,30.08,WNW,293,0.4,0.9,82,0.00,,,0.12,WUHU216HW,2013-02-08 05:26:00,
2013-02-07 21:31:00,35.6,31.0,30.08,West,270,0.0,0.9,83,0.00,,,0.12,WUHU216HW,2013-02-08 05:31:00,
2013-02-07 21:36:00,35.6,31.0,30.08,West,270,0.0,0.4,83,0.00,,,0.12,WUHU216HW,2013-02-08 05:36:00,
2013-02-07 21:59:00,35.1,30.7,30.09,West,270,0.4,0.4,84,0.00,,,0.12,WUHU216HW,2013-02-08 05:59:00,
2013-02-07 22:04:00,35.1,30.7,30.09,West,270,0.4,0.4,84,0.00,,,0.12,WUHU216HW,2013-02-08 06:04:00,
2013-02-07 22:59:00,33.8,29.2,30.11,NE,45,0.0,0.0,83,0.00,,,0.12,WUHU216HW,2013-02-08 06:59:00,
2013-02-07 23:04:00,33.7,29.0,30.11,NE,45,0.0,0.0,83,0.00,,,0.12,WUHU216HW,2013-02-08 07:04:00,
2013-02-07 23:09:00,33.5,28.8,30.11,North,0,0.0,0.4,83,0.00,,,0.12,WUHU216HW,2013-02-08 07:09:00,
2013-02-07 23:14:00,33.5,29.1,30.11,North,0,0.0,0.4,84,0.00,,,0.12,WUHU216HW,2013-02-08 07:14:00,
2013-02-07 23:19:00,33.5,29.1,30.11,North,0,0.0,0.4,84,0.00,,,0.12,WUHU216HW,2013-02-08 07:19:00,
2013-02-07 23:24:00,33.3,28.9,30.11,North,0,0.2,0.4,84,0.00,,,0.12,WUHU216HW,2013-02-08 07:24:00,
2013-02-07 23:29:00,33.1,28.8,30.11,NNW,338,0.0,0.4,84,0.00,,,0.12,WUHU216HW,2013-02-08 07:29:00,
2013-02-07 23:34:00,33.1,28.8,30.12,NNW,338,0.0,0.2,84,0.00,,,0.12,WUHU216HW,2013-02-08 07:34:00,
2013-02-07 23:39:00,32.9,28.6,30.12,NNW,338,0.0,0.2,84,0.00,,,0.12,WUHU216HW,2013-02-08 07:39:00,
2013-02-07 23:45:00,32.8,28.4,30.12,West,270,0.4,1.1,84,0.00,,,0.12,WUHU216HW,2013-02-08 07:45:00,
2013-02-07 23:50:00,32.8,28.7,30.12,WNW,293,0.0,1.1,85,0.00,,,0.12,WUHU216HW,2013-02-08 07:50:00,
2013-02-07 23:55:00,32.8,28.7,30.12,WNW,293,0.0,0.7,85,0.00,,,0.12,WUHU216HW,2013-02-08 07:55:00,